Regional Weather Roundup
Issued by NWS

Home | Current Version | Previous Version | Graphics & Text | Print | Product List | Glossary On
Versions: 1 2 3 4 5 6 7 8 9 10 11 12 13 14 15 16 17 18 19 20 21 22 23 24 25 26 27
000
ASUS45 KBOI 191010
RWRID

IDAHO REGIONAL WEATHER ROUNDUP
NATIONAL WEATHER SERVICE BOISE ID
400 AM MDT THU OCT 19 2017

NOTE: "FAIR" INDICATES FEW OR NO CLOUDS BELOW 12000 FEET
WITH NO SIGNIFICANT WEATHER AND/OR OBSTRUCTIONS TO VISIBILITY

IDZ012-014-191100-
SOUTHWEST IDAHO


CITY           SKY/WX    TMP DP  RH WIND       PRES   REMARKS
BOISE          PTCLDY    51  29  42 SE13      29.85S
CALDWELL       PTCLDY    43  28  55 E5        29.84S HAZE
MOUNTAIN HOME  CLEAR     46  27  46 E16       29.88F
$$

IDZ016-017-191100-
SOUTHCENTRAL IDAHO


CITY           SKY/WX    TMP DP  RH WIND       PRES   REMARKS
BURLEY         PTCLDY    47  19  33 CALM      29.95S
JEROME         CLEAR     43  27  53 NE10      29.94F
TWIN FALLS     CLEAR     55  15  20 S13       29.93F
$$

IDZ019>023-191100-
SOUTHEAST IDAHO


CITY           SKY/WX    TMP DP  RH WIND       PRES   REMARKS
IDAHO FALLS    CLOUDY    33  27  78 N3        30.01F
POCATELLO      CLEAR     34  27  75 N7        30.00S WCI  28
REXBURG        CLOUDY    34  27  75 NE3       30.02F
$$

IDZ006-010-011-018-031-032-191100-
CENTRAL IDAHO MOUNTAINS


CITY           SKY/WX    TMP DP  RH WIND       PRES   REMARKS
MCCALL         CLEAR     32  28  85 NE3       29.89F
HAILEY         CLEAR     37  27  65 NW12G17   30.04S WCI  30
STANLEY          N/A     30  22  72 CALM      30.02F
SALMON         CLOUDY    36  28  73 CALM      29.90F
CHALLIS        CLEAR     33  24  69 CALM      29.96F
$$

IDZ002-004-006-007-026-191100-
NORTHERN IDAHO


CITY           SKY/WX    TMP DP  RH WIND       PRES   REMARKS
LEWISTON       CLOUDY    45  42  89 SE6       29.72F
LOWELL           N/A     41  41 100 CALM      29.81F
COEUR D`ALENE  CLOUDY    58  39  49 S10       29.66F
MULLAN PASS    CLOUDY    45  26  47 SW12G22   29.77F
$$




USA.gov is the U.S. government's official web portal to all federal, state and local government web resources and services.